Location: San Ambrogio di Valpolicella
(45.5167°N, 10.8333°E)
Time: 14:19:55
(UTC+00:00)

Daily predictions for brighter satellites

Satellite Brightness Start Highest point End
(mag) Time Altitude Azimuth Time Altitude Azimuth Time Altitude Azimuth
Meteor 1-22 Rocket 4.3 18:03:49 10° SSE 18:08:51 47° E 18:13:55 10° NNE
STARLINK-1216 3.6 18:05:29 10° SW 18:09:29 63° SE 18:13:30 10° ENE
ARGOS Delta rocket 4.4 18:04:49 10° SE 18:09:43 48° ENE 18:14:51 10° N
ATLAS CENTAUR R/B 4.4 18:09:05 10° NW 18:10:31 11° NNW 18:11:55 10° N
STARLINK-1100 3.7 18:06:38 10° NW 18:10:41 65° NNE 18:14:44 10° ESE
Cosmos 1674 2.6 18:07:00 10° N 18:10:46 86° E 18:14:29 10° S
Cosmos 1110 Rocket 4.0 18:05:35 10° NNW 18:10:51 69° ENE 18:16:02 10° SSE
Cosmos 1553 Rocket 4.0 18:05:34 10° S 18:11:38 89° E 18:17:46 10° N
Cosmos 2219 Rocket 4.0 18:06:49 10° WSW 18:11:58 35° NW 18:17:09 10° NNE
NOSS 2-1 (E) 4.2 18:08:48 10° WSW 18:12:05 45° NW 18:15:43 10° NNE
STARLINK-1237 3.6 18:10:13 10° SW 18:14:15 69° SE 18:18:17 10° ENE
STARLINK-1083 3.7 18:11:22 10° NW 18:15:26 69° NNE 18:19:30 10° ESE
Cosmos 1939 Rocket 4.0 18:13:14 10° S 18:17:04 47° W 18:20:53 10° NNW
STARLINK-1209 3.6 18:14:17 10° WSW 18:17:08 48° NNW 18:20:00 10° NE
KORONAS-FOTON 3.8 18:13:56 10° N 18:17:47 86° W 18:21:35 10° S
Cosmos 1943 Rocket 3.4 18:13:48 10° N 18:18:21 25° NE 18:22:52 10° ESE
STARLINK-1202 3.5 18:14:55 10° SW 18:18:58 74° SE 18:23:01 10° ENE
STARLINK-1228 3.7 18:16:30 10° WSW 18:19:17 46° NNW 18:22:06 10° NE
ATLAS 2AS CENTAUR R/B 4.5 18:13:34 10° NW 18:19:35 23° NNE 18:25:18 10° ENE
STARLINK-1125 3.6 18:15:56 10° NW 18:20:02 73° NNE 18:24:06 10° ESE
SL-14 R/B 3.8 18:17:59 10° N 18:21:52 41° ENE 18:25:41 10° SSE
Cosmos 1980 4.2 18:17:29 10° SW 18:23:07 66° WNW 18:28:48 10° NNE
SL-8 R/B 4.1 18:19:47 10° W 18:24:31 61° N 18:29:16 10° ENE
STARLINK-1109 3.6 18:20:41 10° WNW 18:24:46 78° NNE 18:28:41 11° ESE
ERBS 4.4 18:23:01 10° W 18:25:56 26° NNW 18:28:52 10° NNE
STARLINK-1246 3.5 18:21:57 10° SW 18:26:02 83° SSE 18:30:09 10° ENE
Cosmos 2315 Rocket 4.3 18:21:57 10° SSE 18:27:52 45° E 18:33:52 10° NNE
Cosmos 1766 3.5 18:24:16 10° SSW 18:28:16 79° W 18:32:16 10° N
STARLINK-1091 3.6 18:25:30 10° WNW 18:29:35 83° NNE 18:33:19 12° ESE
Orbus 7S? 4.1 18:27:30 10° WNW 18:30:07 29° SW 18:32:18 10° SSE
STARLINK-67 4.3 18:29:17 10° W 18:31:33 27° NNW 18:33:51 10° NE
ADEOS Rocket 3.7 18:25:07 10° N 18:31:51 63° WNW 18:37:52 10° SSW
STARLINK-1066 3.3 18:28:46 10° WNW 18:31:54 58° SW 18:34:49 11° SE
STARLINK-1201 3.7 18:28:42 10° WSW 18:31:54 54° NNW 18:35:08 10° NE
USA 234 3.6 18:25:50 10° ENE 18:32:02 43° SE 18:38:11 10° SSW
STARLINK-1081 3.3 18:29:16 10° WNW 18:32:20 57° SW 18:35:12 11° SE
STARLINK-1070 3.3 18:29:43 10° WNW 18:32:47 56° SW 18:35:38 11° SE
Meteor 2-8 Rocket 4.4 18:26:48 10° S 18:32:56 74° E 18:39:03 10° NNE
STARLINK-1069 3.4 18:30:08 10° WNW 18:33:14 56° SW 18:36:06 12° SE
STARLINK-1224 3.6 18:29:11 10° WSW 18:33:16 89° NNW 18:37:21 10° ENE
STARLINK-1085 3.4 18:30:35 10° WNW 18:33:42 56° SW 18:36:32 12° SE
STARLINK-1086 3.4 18:31:05 10° WNW 18:34:09 55° SW 18:36:56 12° SE
Cosmos 1626 2.2 18:30:45 10° N 18:34:24 53° ENE 18:38:00 10° SSE
STARLINK-1095 3.4 18:31:32 10° WNW 18:34:36 54° SW 18:37:22 12° SE
H-2A R/B 2.1 18:29:23 10° SSE 18:34:40 67° ENE 18:39:49 10° N
STARLINK-1203 3.6 18:30:55 10° WSW 18:34:53 81° NNW 18:38:53 10° ENE
STARLINK-1077 3.4 18:31:59 10° WNW 18:35:02 54° SW 18:37:48 12° SE
STARLINK-1075 3.4 18:32:26 10° WNW 18:35:30 53° SW 18:38:14 12° SE
HJ-1C 4.0 18:32:32 10° S 18:35:49 58° W 18:39:09 10° NNW
STARLINK-1093 3.5 18:32:51 10° WNW 18:35:56 53° SW 18:38:42 12° SE
STARLINK-1074 3.5 18:33:17 10° WNW 18:36:23 52° SW 18:39:08 12° SE
STARLINK-1087 3.5 18:33:47 10° WNW 18:36:49 52° SW 18:39:31 12° SE
SL-16 R/B 2.2 18:31:29 10° S 18:37:01 60° ESE 18:42:36 10° NNE
STARLINK-1088 3.5 18:34:15 10° WNW 18:37:17 51° SW 18:39:58 12° SE
STARLINK-1115 3.5 18:34:39 10° WNW 18:37:44 51° SW 18:40:27 13° SE
STARLINK-1225 3.6 18:33:49 10° WSW 18:37:54 84° NNW 18:41:59 10° ENE
STARLINK-1076 3.5 18:35:07 10° WNW 18:38:11 50° SW 18:40:53 13° SE
STARLINK-1092 3.5 18:35:34 10° WNW 18:38:38 50° SW 18:41:19 13° SE
STARLINK-1080 3.5 18:36:03 10° WNW 18:39:05 49° SW 18:41:42 13° SE
SL-08 RB Rocket 4.1 18:35:06 10° SE 18:39:20 42° ENE 18:43:39 10° N
STARLINK-1090 3.6 18:36:30 10° WNW 18:39:32 49° SW 18:42:08 13° SE
STARLINK-1072 3.6 18:35:48 10° WNW 18:39:52 84° SSW 18:43:08 15° SE
STARLINK-1089 3.6 18:36:57 10° WNW 18:39:58 48° SW 18:42:33 13° SE
STARLINK-1107 3.6 18:37:25 10° WNW 18:40:27 48° SW 18:43:00 13° SE
Resurs 01 Rocket 3.0 18:38:54 14° ESE 18:41:14 21° ENE 18:44:31 10° NNE
STARLINK-1230 3.7 18:38:34 10° WSW 18:42:38 78° NNW 18:46:44 10° ENE
STARLINK-1096 3.6 18:40:10 10° WNW 18:44:12 78° SW 18:47:19 16° SE
STARLINK-1144 4.4 18:41:03 10° NW 18:44:59 41° NNE 18:47:59 16° E
STARLINK-1233 4.1 18:42:23 10° W 18:45:22 42° NNW 18:48:23 10° NE
FREGAT/IRIS 2.2 18:42:41 10° SSE 18:45:24 77° ENE 18:48:07 10° N
STARLINK-1212 4.1 18:42:50 10° W 18:45:50 41° NNW 18:48:50 10° NE
STARLINK-1105 4.1 18:43:16 10° W 18:46:17 41° NNW 18:49:18 10° NE
STARLINK-1206 4.1 18:43:47 10° W 18:46:46 40° NNW 18:49:44 10° NE
STARLINK-1247 4.1 18:44:13 10° W 18:47:11 40° NNW 18:50:11 10° NE
STARLINK-1243 3.8 18:43:24 10° WSW 18:47:28 73° NNW 18:51:33 10° NE
STARLINK-1227 4.1 18:44:38 10° W 18:47:38 40° NNW 18:50:39 10° NE
STARLINK-1218 4.1 18:45:08 10° W 18:48:06 40° NNW 18:51:05 10° NE
Cosmos 1302 Rocket 4.0 18:42:58 10° NNW 18:48:15 70° ENE 18:53:31 10° SSE
Abrixas rocket 3.0 18:45:43 10° SSW 18:48:17 27° SSE 18:49:06 23° ESE
STARLINK-1226 4.1 18:45:35 10° W 18:48:33 40° NNW 18:51:32 10° NE
STARLINK-1254 4.1 18:46:01 10° W 18:48:59 40° NNW 18:51:59 10° NE
STARLINK-1079 3.7 18:45:13 10° WNW 18:49:15 72° SW 18:52:10 18° SE
STARLINK-1215 4.1 18:46:30 10° W 18:49:28 39° NNW 18:52:26 10° NE
STARLINK-1231 4.2 18:46:57 10° W 18:49:54 39° NNW 18:52:52 10° NE
STARLINK-1103 4.4 18:46:01 10° NW 18:49:59 43° NNE 18:52:45 18° E
Cosmos 1953 3.3 18:47:33 14° SE 18:50:01 25° E 18:53:20 10° NNE
STARLINK-1232 4.2 18:47:51 10° W 18:50:49 38° NNW 18:53:46 10° NE
Cosmos 304 Rocket 4.4 18:46:11 10° NNW 18:50:52 57° WSW 18:55:33 10° S
STARLINK-1217 4.2 18:48:19 10° W 18:51:16 38° NNW 18:54:14 10° NE
Cosmos 1709 Rocket 3.9 18:45:06 10° N 18:51:21 80° E 18:57:28 10° S
STARLINK-1208 4.2 18:48:44 10° W 18:51:42 38° NNW 18:54:41 10° NE
STARLINK-1229 4.2 18:49:13 10° W 18:52:10 38° NNW 18:55:07 10° NE
STARLINK-1236 3.9 18:48:11 10° WSW 18:52:15 69° NNW 18:56:20 10° NE
STARLINK-1271 4.2 18:49:40 10° W 18:52:37 38° NNW 18:55:35 10° NE
STARLINK-1270 4.2 18:50:09 10° W 18:53:05 37° NNW 18:56:02 10° NE
STARLINK-1154 4.2 18:50:36 10° W 18:53:32 37° NNW 18:56:29 10° NE
STARLINK-1116 3.7 18:49:38 10° WNW 18:53:41 67° SW 18:56:26 19° SE
Cosmos 1269 Rocket 4.1 18:48:37 10° SSW 18:53:54 83° WNW 18:59:15 10° NNE
MONITOR-E 3.7 18:51:17 10° S 18:53:55 83° WSW 18:56:34 10° NNW
STARLINK-1197 4.3 18:51:31 10° W 18:54:27 37° NNW 18:57:23 10° NE
STARLINK-1189 4.3 18:51:58 10° W 18:54:54 36° NNW 18:57:50 10° NE
STARLINK-1101 4.3 18:51:00 10° NW 18:54:59 45° NNE 18:57:32 20° E
STARLINK-1187 4.4 18:52:52 10° W 18:55:47 34° NNW 18:58:41 10° NE
STARLINK-1188 4.3 18:52:52 10° W 18:55:48 36° NNW 18:58:44 10° NE
STARLINK-1198 4.3 18:52:53 10° W 18:55:48 36° NNW 18:58:44 10° NE
STARLINK-1199 4.3 18:54:49 10° W 18:57:45 36° NNW 19:00:43 10° NE
SL-24 R/B 4.4 18:53:29 10° NNE 18:57:49 42° E 19:01:37 10° SSE
STARLINK-1191 4.3 18:55:17 10° W 18:58:12 35° NNW 19:01:09 10° NE
STARLINK-1210 4.4 18:55:44 10° W 18:58:40 35° NNW 19:01:36 10° NE
STARLINK-1221 4.4 18:56:11 10° W 18:59:07 35° NNW 19:02:02 10° NE
STARLINK-1219 4.4 18:56:39 10° W 18:59:35 35° NNW 19:02:29 10° NE
STARLINK-1102 4.2 18:55:57 10° NW 18:59:58 47° NNE 19:02:19 22° E
STARLINK-1222 4.4 18:57:07 10° W 19:00:02 35° NNW 19:02:54 10° NE
STARLINK-1211 4.4 18:57:34 10° W 19:00:29 34° NNW 19:03:20 10° NE
STARLINK-1214 4.4 18:58:01 10° W 19:00:56 34° NNW 19:03:46 11° NE
ISS -2.7 18:57:52 10° NW 19:01:01 36° NNE 19:02:41 21° ENE
STARLINK-1245 4.4 18:58:30 10° W 19:01:23 34° NNW 19:04:10 11° NE
Cosmos 2251 Rocket 4.1 18:56:47 10° SSE 19:01:33 34° ESE 19:06:23 10° NE
Cosmos 1455 Rocket 3.9 18:57:21 10° SSW 19:01:34 52° WNW 19:05:52 10° N
STARLINK-1238 4.4 18:58:53 10° W 19:01:48 34° NNW 19:04:37 11° NE
STARLINK-1269 4.1 18:58:04 10° WSW 19:02:06 60° NNW 19:06:09 10° NE
Cosmos 2297 3.9 18:57:01 10° NNW 19:02:42 75° WSW 19:08:22 10° SSE
STARLINK-1205 4.4 18:59:50 10° W 19:02:42 33° NNW 19:05:27 11° NE
STARLINK-1094 3.9 18:58:56 10° WNW 19:02:55 57° SW 19:05:21 22° SE
STARLINK-1204 4.4 19:00:19 10° W 19:03:11 33° NNW 19:05:54 11° NE
BREEZE-M DEB (TANK) 4.4 18:55:39 10° WNW 19:03:17 54° N 19:05:20 21° ENE
Cosmos 2074 Rocket 4.4 18:58:15 10° N 19:04:11 42° ENE 19:08:16 19° SE
Cosmos 2084 Rocket 4.1 19:00:34 10° NNW 19:04:51 43° NE 19:06:57 25° E
STARLINK-1111 4.1 19:00:57 10° NW 19:04:59 49° NNE 19:07:06 25° E
Cosmos 2237 Rocket 3.9 19:01:42 10° WSW 19:06:48 35° NW 19:11:57 10° NNE
STARLINK-1200 4.2 19:02:54 10° WSW 19:06:56 57° NNW 19:10:50 11° NE
STARLINK-1117 4.1 19:03:48 10° WNW 19:07:45 53° SW 19:10:00 23° SSE
CZ-2C R/B 3.0 19:04:39 10° NNE 19:09:30 39° E 19:14:07 11° SSE
STARLINK-1073 4.0 19:05:56 10° NW 19:09:59 52° NNE 19:11:53 28° E
Cosmos 1626 Rocket 3.5 19:05:44 10° N 19:10:10 86° W 19:14:31 10° S
STARLINK-1192 4.3 19:07:42 10° WSW 19:11:42 54° NNW 19:15:24 12° NE
STARLINK-1078 4.2 19:08:15 10° WNW 19:12:11 49° SW 19:14:17 24° SSE
BREEZE-M DEB (TANK) 4.4 19:04:30 10° WNW 19:13:02 31° WSW 19:15:44 13° S
STARLINK-1121 4.0 19:10:53 10° NW 19:14:58 55° NNE 19:16:39 31° E
ARGOS 3.5 19:09:43 10° S 19:15:05 68° WSW 19:20:29 10° NNW
Cosmos 292 Rocket 4.0 19:11:49 10° NNW 19:16:30 51° ENE 19:18:31 31° ESE
STARLINK-1244 4.3 19:12:39 10° W 19:16:38 51° NNW 19:20:08 13° NE
STARLINK-1108 4.3 19:13:08 10° WNW 19:17:01 45° SW 19:18:58 25° SSE
Cosmos 1602 Rocket 3.5 19:13:42 10° N 19:18:11 89° E 19:21:45 16° S
IRIDIUM 104 4.3 19:14:23 10° N 19:19:35 67° E 19:23:42 16° SSE
STARLINK-1106 3.9 19:15:50 10° NW 19:19:56 58° NNE 19:21:25 35° E
STARLINK-1138 4.4 19:17:17 10° W 19:21:15 48° NNW 19:24:34 14° NE
STARLINK-1071 4.5 19:17:49 10° WNW 19:21:39 41° SW 19:23:26 26° SSE
USA 186 3.6 19:19:21 10° SSW 19:22:30 34° W 19:25:38 10° NNW
MOS 1 Rocket 3.6 19:18:45 10° NNE 19:23:55 55° E 19:29:12 10° S
STARLINK-1112 3.8 19:20:51 10° NW 19:24:57 62° NNE 19:26:14 40° E
MetOp-A 4.1 19:21:25 16° SSE 19:25:44 86° ENE 19:31:08 10° NNW
CZ-2C R/B 3.9 19:22:43 10° S 19:27:36 47° W 19:32:17 10° NNW
IRIDIUM 114 4.2 19:23:30 10° N 19:28:46 81° E 19:32:51 17° S
STARLINK-1128 3.7 19:25:49 10° NW 19:29:57 66° NNE 19:31:01 46° E
Cosmos 1470 3.7 19:27:26 10° SSW 19:31:11 49° WNW 19:34:59 10° N
Cosmos 1437 4.0 19:29:36 10° N 19:31:25 27° NNE 19:31:25 27° NNE
SPOT 3 Rocket 3.7 19:29:48 15° S 19:34:14 73° WSW 19:39:28 10° NNW
STARLINK-1113 3.6 19:30:47 10° NW 19:34:56 71° NNE 19:35:47 52° E
Cosmos 1825 Rocket 3.6 19:32:53 10° N 19:37:15 55° ENE 19:37:53 50° ESE
IRIDIUM 103 4.3 19:32:41 10° N 19:37:56 84° W 19:42:00 17° S
STARLINK-1119 3.6 19:35:46 10° WNW 19:39:55 76° NNE 19:40:34 60° E
SJ-6B 4.4 19:36:51 10° SSW 19:40:34 35° W 19:44:23 10° NNW
Cosmos 2369 Rocket 2.1 19:35:26 10° NNW 19:41:10 73° ENE 19:43:14 40° SE
Cosmos 1726 2.0 19:42:57 72° E 19:42:57 72° E 19:46:37 10° NNE
STARLINK-1114 3.5 19:40:47 10° WNW 19:44:56 81° NNE 19:45:24 68° E
Aureole 2 Rocket 2.4 19:42:38 10° NNW 19:45:56 78° N 19:45:56 78° N
Cosmos 1758 Rocket 3.4 19:42:39 10° N 19:47:03 83° E 19:47:54 57° SSE
Cosmos 2263 4.2 19:41:36 10° NNW 19:47:11 60° ENE 19:48:36 46° ESE
NOSS 3-3 (A) 3.8 19:42:41 10° SSW 19:48:24 63° ESE 19:54:50 10° NE
NOSS 3-3 (C) 3.8 19:42:48 10° SSW 19:48:31 62° ESE 19:54:56 10° NE
STARLINK-1130 (DARKSAT) 3.4 19:45:44 10° WNW 19:49:54 86° NE 19:50:10 78° ESE
Terra 3.7 19:53:53 17° NE 19:53:53 17° NE 19:56:15 10° NNE
Cosmos 1953 Rocket 3.7 19:49:09 10° N 19:53:21 55° ENE 19:53:21 55° ENE
STARLINK-1084 3.5 19:50:42 10° WNW 19:54:51 88° SW 19:54:56 86° SSE
Cosmos 2184 Rocket 4.0 19:49:51 10° N 19:56:13 86° W 19:59:37 29° S
Spot 2 Rocket 3.5 19:55:41 54° ESE 19:56:19 59° ENE 20:01:22 10° N
Cosmos 1606 Rocket 3.4 19:59:07 76° E 19:59:07 76° E 20:03:30 10° NNE
STARLINK-1098 3.6 19:55:42 10° WNW 19:59:43 80° WSW 19:59:43 80° WSW
SPOT 1/Viking Rocket 4.0 20:00:50 43° ENE 20:00:51 43° ENE 20:05:46 10° N
Cosmos 1943 Rocket 2.5 19:57:02 10° NNW 20:02:30 60° WSW 20:04:34 37° S
Cosmos 1943 3.1 20:01:03 34° S 20:03:31 66° ESE 20:09:10 10° NNE
STARLINK-1123 3.7 20:00:41 10° WNW 20:04:30 71° W 20:04:30 71° W
Meteor 2-10 4.2 20:00:44 13° SSW 20:05:32 74° WNW 20:11:06 10° N
SL-8 R/B 3.6 20:02:34 10° WNW 20:07:22 80° NNE 20:07:34 77° NE
STARLINK-1097 3.9 20:05:39 10° WNW 20:09:16 62° W 20:09:16 62° W
ATLAS 2AS CENTAUR R/B 3.2 20:04:58 10° NNW 20:12:28 52° NE 20:14:21 42° E
STARLINK-1099 4.2 20:10:39 10° WNW 20:14:04 54° W 20:14:04 54° W
USA 234 3.5 20:08:45 10° NE 20:15:14 66° NNW 20:21:42 10° WSW
USA 245 3.8 20:15:17 77° ESE 20:15:31 79° ENE 20:21:20 10° N
Cosmos 2154 Rocket 3.9 20:10:56 10° N 20:17:20 89° E 20:18:59 53° S
Resurs 01 Rocket 2.6 20:16:28 38° SW 20:17:26 44° W 20:21:40 10° NNW
STARLINK-1104 4.4 20:15:39 10° WNW 20:18:51 47° W 20:18:51 47° W
SL-16 R/B 4.3 20:16:53 10° WSW 20:21:33 26° NW 20:26:15 10° N
Cosmos 2228 3.4 20:22:39 60° NW 20:22:39 60° NW 20:26:32 10° N
Cosmos 967 Rocket 4.5 20:17:13 10° SW 20:23:41 86° NW 20:30:14 10° NE
Cosmos 1953 4.4 20:23:07 10° SW 20:26:21 25° WNW 20:29:42 10° NNW
Cosmos 962 Rocket 4.3 20:25:23 10° N 20:31:36 73° E 20:31:43 73° E
Nadezhda 1 Rocket 4.2 20:29:47 31° SSW 20:33:02 70° W 20:39:26 10° N
SL-8 Rocket 4.2 20:31:21 10° N 20:37:01 54° ENE 20:37:01 54° ENE
ISS -1.0 20:34:39 10° WNW 20:35:39 18° WNW 20:35:39 18° WNW
Cosmos 2058 Rocket 4.4 20:42:37 37° N 20:42:37 37° N 20:45:24 10° N
SPOT 5 4.0 20:44:25 32° N 20:44:25 32° N 20:46:53 10° N
Cosmos 1603 4.4 20:37:25 10° SW 20:42:54 51° WNW 20:48:23 10° NNE
Cosmos 2366 rocket 4.5 20:39:20 10° N 20:44:18 45° NE 20:44:18 45° NE
ERS-1 Rocket 3.5 20:48:38 54° N 20:48:38 54° N 20:52:31 10° NNW
CZ-2C R/B 4.3 20:45:13 10° N 20:49:40 30° WNW 20:54:05 10° SW
Cosmos 1656 Rocket 4.3 20:57:09 10° NNW 21:02:03 52° W 21:02:03 52° W
Aureole 1 Rocket 4.4 21:01:50 47° SW 21:04:22 77° WNW 21:11:00 10° NNE
COSMOS 2455 3.4 21:10:26 10° NNW 21:15:09 51° N 21:15:09 51° N
Cosmos 2369 Rocket 4.2 21:20:49 10° WNW 21:24:31 18° W 21:25:03 18° WSW
Terra 3.6 21:32:45 29° NNW 21:32:45 29° NNW 21:35:07 10° NNW
NOSS 3-4 (A) 4.0 21:23:53 10° NW 21:30:09 67° W 21:30:09 67° W
NOSS 3-4 (C) 4.0 21:23:59 10° NW 21:30:14 67° W 21:30:14 67° W
ATLAS 2AS CENTAUR R/B 3.8 21:56:23 10° NW 22:01:48 38° W 22:01:48 38° W
Cosmos 1697 Rocket 4.5 22:07:20 10° NNW 22:10:12 26° N 22:10:12 26° N
Mayak 2.0 22:15:23 10° N 22:15:32 11° N 22:15:32 11° N
Cosmos 1980 Rocket 4.2 22:32:55 10° N 22:35:28 23° N 22:35:28 23° N
CZ-4C R/B 3.9 22:32:28 10° NNW 22:38:44 38° NE 22:38:44 38° NE
SL-16 R/B 4.0 23:52:44 31° NE 23:52:44 31° NE 23:57:09 10° N
